Regional Weather Roundup
Issued by NWS State College, PA

Home | Current Version | Previous Version | Graphics & Text | Print | Product List | Glossary Off
Versions: 1 2 3 4 5 6 7 8 9 10 11 12 13 14 15 16 17 18 19 20 21 22 23 24 25 26 27 28 29 30 31 32 33 34 35 36 37 38 39 40 41 42 43 44 45 46 47 48 49 50

000
ASUS41 KCTP 260403
RWRCTP

REGIONAL WEATHER ROUNDUP
NATIONAL WEATHER SERVICE STATE COLLEGE PA
1200 AM EDT MON JUN 26 2017

Note: "fair" indicates few or no clouds below 12,000 feet with no
significant weather and/or obstructions to visibility.

* = STATION THAT DOES NOT REPORT PRECIPITATION /E.G. RAIN...SNOW...ETC/
    THUNDER OR FOG.

PAZ002>004-007>009-013>016-020>023-029>032-260500-
WESTERN PENNSYLVANIA

CITY           SKY/WX    TMP DP  RH WIND       PRES   REMARKS
ERIE           CLOUDY    62  51  67 SW5       30.04S
MEADVILLE      CLOUDY    58  49  72 S5        30.06F
FRANKLIN*      MOCLDY    52  43  71 SW3       30.08F
NEW CASTLE     FAIR      58  48  69 SW5       30.08F
BEAVER COUNTY  NOT AVBL
BUTLER*        CLEAR     55  46  71 S3        30.09S
PITTSBURGH INT CLEAR     60  46  59 SW6       30.09R
PITTSBURGH     CLEAR     63  42  46 W9        30.09S
INDIANA*       PTCLDY    57  55  94 CALM      30.11S
LATROBE        PTCLDY    59  55  88 S5        30.11R
WASHINGTON CO* CLEAR     52  46  82 W3        30.13S
$$

PAZ004>006-010>012-017>019-024>028-033>037-041-042-045-046-049>053-260500-
CENTRAL PENNSYLVANIA

CITY           SKY/WX    TMP DP  RH WIND       PRES   REMARKS
BRADFORD       CLEAR     45  45 100 CALM      30.07S
DUBOIS         CLEAR     53  45  74 CALM      30.07S
CLEARFIELD     PTCLDY    55  51  86 CALM      30.08R
JOHNSTOWN      PTCLDY    57  49  74 S5        30.10S
ALTOONA        CLEAR     57  52  83 S6        30.09R
STATE COLLEGE  PTCLDY    59  51  75 CALM      30.07S
WILLIAMSPORT   PTCLDY    63  52  67 NW6       30.03R
SELINSGROVE    CLOUDY    65  53  65 CALM      30.04R
FT INDIANTOWN  CLOUDY    70  47  44 W7        30.02S
CAPITAL CITY   PTCLDY    67  49  52 W7        30.03R
HARRISBURG     MOCLDY    72  49  44 W8        30.02R
YORK           PTCLDY    65  52  62 W3        30.04R
$$

PAZ038>040-043-044-047-048-054-055-060>062-067>071-260500-
EASTERN PENNSYLVANIA

CITY           SKY/WX    TMP DP  RH WIND       PRES   REMARKS
SCRANTON       PTCLDY    60  52  74 CALM      30.03F
MOUNT POCONO   CLEAR     55  50  83 NW7       30.05S
ALLENTOWN      PTCLDY    67  50  54 W3        30.00S
QUAKERTOWN*    CLEAR     63  55  77 CALM      30.02S
READING        PTCLDY    67  53  61 NW7       30.00S
LANCASTER      MOCLDY    67  52  58 W7        30.02S
COATESVILLE    CLEAR     68  48  49 CALM      30.04S
POTTSTOWN      CLEAR     65  51  60 CALM      30.02F
BLUE BELL      CLEAR     63  57  82 CALM      30.01F
DOYLESTOWN     CLEAR     68  53  58 CALM      29.99F
WILLOW GROVE   NOT AVBL
NORTH PHILA    CLEAR     73  52  47 W9        30.00S
PHILADELPHIA   CLEAR     75  47  36 W12       30.00S
$$




USA.gov is the U.S. government's official web portal to all federal, state and local government web resources and services.